RH
33 37 38 31 31 27 29 33 35 28 23 25 34 30 46 50 53 61 63 72 72 60 55 57 57 59 67 80 81 77 77 73 69 72 76 87 84 73 64 68 70 69 69 69
36 38 30 30 28 30 31 33 32 31 23 25 30 27 42 54 49 52 53 58 67 65 62 65 63 65 65 70 75 84 79 71 72 72 71 75 75 70 67 76 73 66 57 47
37 29 28 25 25 29 30 33 36 34 24 22 28 29 28 29 44 46 51 47 56 53 58 64 60 62 62 64 50 50 49 53 65 70 74 77 76 70 76 78 74 66 52 50
36 32 30 30 31 30 37 29 33 29 28 22 25 38 36 33 41 47 47 48 50 47 54 59 62 58 57 54 50 46 43 44 49 62 76 78 72 66 67 72 73 73 67 62
33 38 32 31 28 31 34 30 30 27 35 34 35 36 34 36 37 45 47 45 46 46 48 53 57 56 55 65 57 52 55 60 55 62 81 79 84 75 67 74 74 76 71 61
31 29 27 26 26 31 27 27 37 48 46 55 41 39 40 40 32 32 42 42 44 45 44 47 49 58 58 63 64 64 68 65 72 77 73 85 91 75 70 72 77 77 70 65
32 29 27 28 26 28 30 35 46 46 66 58 43 43 40 28 31 31 38 38 36 41 46 46 48 50 55 53 59 65 65 79 89 93 95 95 88 77 80 71 76 76 70 69
42 39 32 32 28 32 33 33 54 49 65 46 47 57 38 30 30 28 26 23 26 29 42 47 45 47 54 53 56 70 66 69 82 86 89 86 82 92 88 86 80 76 73 62
44 38 38 39 31 28 31 36 35 65 75 71 55 42 29 31 33 47 40 33 33 31 40 44 49 52 55 59 58 56 64 73 75 74 79 85 87 83 90 98 81 76 58 58
36 35 38 39 33 30 29 32 38 57 50 58 49 40 43 32 28 36 54 41 38 35 41 47 53 54 56 57 62 58 68 72 72 78 73 75 79 78 78 77 73 67 71 74
50 34 36 42 40 36 34 34 36 43 59 58 67 50 32 32 29 29 34 36 38 44 45 45 48 54 56 59 63 63 69 75 79 78 75 75 72 71 71 71 65 59 66 66
46 49 65 41 34 33 31 31 40 64 43 79 79 53 28 26 30 31 28 26 31 38 38 37 46 56 57 59 61 64 68 74 77 79 77 78 76 68 66 62 60 57 53 45
47 50 64 46 37 33 32 36 45 53 65 61 70 51 28 28 24 20 29 24 30 35 50 56 58 58 59 61 66 68 76 81 79 76 76 73 70 70 66 59 56 56 51 57
33 46 46 57 42 36 36 35 39 46 73 60 67 41 30 28 31 25 19 24 30 36 43 50 59 60 64 69 72 72 77 76 74 71 66 66 67 67 65 58 57 53 54 59
40 42 35 34 30 40 36 36 44 44 44 52 44 50 38 27 26 25 22 23 25 37 51 55 58 59 60 72 73 74 74 76 73 65 63 67 68 66 60 58 53 53 59 60
46 51 42 43 42 39 37 36 36 40 36 45 40 39 34 30 31 33 29 28 35 42 48 51 53 54 56 60 69 72 72 70 67 66 70 72 66 59 56 55 56 65 68 70
51 66 66 53 50 41 58 43 38 34 36 36 39 34 33 38 38 40 36 33 35 35 33 33 36 39 43 46 50 54 62 66 69 71 75 69 64 62 60 63 66 70 89 98
64 64 75 75 58 62 44 33 34 37 37 37 38 37 42 46 45 39 36 35 36 36 35 35 36 38 43 48 55 60 66 72 75 76 74 69 66 63 67 70 83 97 95 88
61 78 82 70 71 50 35 35 38 36 36 36 44 47 50 49 43 46 39 35 34 35 35 35 36 37 39 47 58 65 74 80 78 76 72 69 68 74 91 97 97 95 100 95
62 72 74 86 64 62 50 36 28 37 62 40 42 46 47 43 74 68 48 43 42 41 41 42 42 44 50 54 65 76 80 82 78 74 73 81 98 100 98 97 100 99 92 55
83 88 80 96 76 64 44 35 26 42 48 40 39 40 43 52 50 52 50 47 48 47 48 49 53 55 59 66 72 76 79 78 76 76 80 87 98 100 100 94 59 45 49 50
70 86 94 91 78 59 39 40 36 42 42 36 37 37 42 47 54 55 55 55 56 56 59 60 58 61 65 72 73 72 72 75 82 97 100 100 93 68 41 36 39 45 50 48
56 66 77 69 69 47 41 33 27 33 35 38 38 42 41 51 55 58 61 64 64 64 64 64 62 64 68 69 72 76 84 91 90 72 53 41 29 29 33 35 39 40 42 46
57 61 66 60 57 54 51 41 35 35 35 40 40 50 53 53 59 63 67 69 69 68 65 63 63 66 74 82 79 74 63 52 43 35 31 30 30 33 36 38 39 42 45 52
64 63 71 80 77 72 66 50 43 46 49 54 60 58 56 54 64 65 69 68 67 67 70 75 80 83 75 63 58 50 43 39 36 37 42 49 56 56 51 51 53 57 60 66
61 65 73 79 68 54 62 62 58 55 60 61 60 64 64 63 64 69 71 71 73 80 86 78 70 68 65 57 54 54 52 49 46 45 44 44 46 48 53 60 60 72 89 94
Wind_Speed
3 4 2 4 4 2 3 2 2 4 5 5 8 5 14 21 17 17 26 30 32 34 30 31 33 33 34 34 34 31 31 31 30 30 31 29 28 24 19 14 9 10 11 11
4 1 5 5 7 4 6 5 9 9 7 8 7 6 5 12 19 28 31 32 36 36 36 35 34 35 34 36 37 36 34 31 32 32 31 31 28 25 17 11 12 13 13 12
4 5 1 1 2 1 2 3 7 8 4 4 6 3 4 4 10 20 25 37 37 40 42 41 38 38 35 37 34 36 37 35 35 34 33 31 29 23 20 17 17 15 13 13
4 3 2 2 2 4 5 3 6 4 1 2 4 3 4 6 13 9 25 29 38 43 43 44 45 44 43 41 37 37 39 35 35 35 35 34 34 32 27 20 19 16 17 15
6 4 3 2 5 6 9 3 5 1 3 3 4 4 5 0 8 15 21 34 36 44 46 46 48 46 44 44 39 39 39 38 35 37 36 34 34 31 25 22 21 20 19 16
5 4 3 5 2 6 3 2 4 4 2 2 3 4 5 5 12 11 21 31 37 40 45 45 44 44 44 45 42 39 40 30 33 34 32 35 33 29 27 26 25 23 20 19
2 3 2 2 2 4 5 5 3 4 4 4 2 1 8 7 8 9 12 30 40 39 40 45 46 48 45 45 42 41 32 33 31 29 32 29 32 29 28 27 28 27 25 22
4 4 4 1 4 4 1 5 4 3 3 4 3 4 6 5 10 13 16 19 25 28 40 45 46 45 44 41 39 39 28 27 25 30 30 27 29 31 31 31 32 29 26 21
4 4 2 3 2 3 3 2 3 6 3 2 3 6 10 6 4 9 10 15 17 19 29 42 43 42 39 35 33 25 25 27 25 29 27 28 30 30 29 31 30 28 22 18
6 1 3 4 2 4 2 6 1 3 2 3 4 4 5 5 6 3 7 12 15 19 24 31 36 37 37 31 29 23 26 25 25 30 26 27 29 28 29 31 32 29 27 23
5 4 4 1 5 9 2 2 3 4 5 4 1 5 7 6 5 7 10 6 13 19 22 24 27 33 34 30 29 24 26 27 29 30 27 30 29 29 30 30 29 28 24 21
8 6 4 9 3 4 3 2 5 4 4 1 4 6 4 8 6 8 12 11 11 17 20 21 28 35 36 34 32 30 27 30 33 32 30 26 25 27 28 30 28 24 22 18
7 1 2 7 6 4 1 4 4 5 3 6 5 6 3 6 8 11 15 17 14 17 24 28 32 35 36 36 35 32 34 37 35 33 28 25 27 27 29 28 25 25 23 19
13 4 7 7 8 4 2 3 4 5 3 3 6 6 6 8 7 12 18 19 17 19 25 30 31 34 34 35 35 35 38 39 36 29 27 27 28 29 29 27 25 23 17 16
6 5 3 3 3 4 5 5 6 7 5 6 8 7 8 4 7 9 11 8 9 15 22 29 31 31 34 37 38 39 40 38 33 30 30 29 31 30 26 25 21 17 19 15
2 3 3 3 3 3 4 7 6 5 4 7 5 6 3 3 3 12 8 9 11 8 4 10 19 27 34 37 38 38 36 34 34 31 30 31 29 24 21 20 24 20 19 13
4 6 4 4 2 2 6 8 7 7 6 6 6 8 2 2 5 10 15 15 14 11 8 6 2 3 9 19 26 30 32 31 31 33 31 31 27 25 25 24 22 18 11 5
6 6 3 3 3 1 7 2 7 5 2 4 5 5 4 8 14 15 14 15 13 9 8 6 4 1 2 6 12 19 24 26 28 28 28 27 27 24 21 20 16 7 9 21
2 6 3 4 4 4 4 4 6 5 3 3 6 7 11 16 16 12 10 7 6 6 5 4 4 4 5 8 12 16 19 21 23 23 21 20 19 17 11 6 9 19 23 13
5 6 4 3 5 8 8 4 6 6 2 6 6 7 9 5 3 3 5 5 4 3 2 0 2 2 2 2 6 10 12 16 18 19 20 17 8 4 7 13 17 15 10 14
3 4 5 2 3 7 8 5 9 6 7 17 18 16 14 5 5 12 10 7 5 4 4 3 4 3 5 4 0 3 9 12 14 15 13 12 16 16 16 11 10 12 13 14
7 7 4 3 3 7 8 6 8 6 13 24 18 14 13 14 15 16 13 11 9 9 9 9 9 12 13 11 6 9 6 5 4 9 12 13 8 8 10 11 12 13 15 19
2 7 6 8 6 4 6 4 8 22 29 22 20 19 19 21 20 18 15 13 13 13 13 12 11 12 12 9 5 2 2 1 1 3 3 6 9 11 13 15 16 18 19 22
3 5 4 4 2 4 7 13 24 21 24 21 18 21 21 22 20 18 17 17 16 14 13 11 9 9 7 7 8 8 7 5 4 5 8 10 12 14 15 17 19 21 22 24
6 10 7 1 1 5 7 14 22 21 21 22 21 19 19 18 20 20 20 18 16 14 12 9 9 12 12 10 7 5 3 4 6 8 10 11 13 15 17 19 21 23 25 27
7 7 6 6 19 9 15 21 22 23 22 20 19 19 17 16 21 20 20 17 15 15 15 14 13 11 9 5 2 3 5 8 11 14 16 18 21 22 24 26 29 27 28 29
Wind_Direction
14 59 258 235 223 174 58 41 334 300 238 177 198 186 185 184 190 185 190 193 200 204 201 196 201 202 202 200 203 203 201 203 205 207 208 211 215 214 218 239 237 209 212 212
23 271 232 262 188 43 21 352 324 301 303 160 178 214 174 177 197 196 198 199 203 208 207 204 203 206 204 202 204 207 209 211 210 215 217 221 224 226 235 226 224 215 216 217
168 221 176 114 271 338 268 233 252 225 336 41 113 353 145 213 209 218 212 206 207 209 206 204 205 206 206 205 205 210 215 217 219 219 222 225 223 226 225 223 231 214 218 225
221 286 255 86 253 141 310 223 246 268 97 188 57 253 264 197 212 206 220 206 208 212 212 210 207 206 209 210 209 210 214 219 222 219 223 226 226 227 234 248 228 215 220 227
246 191 178 242 221 180 234 267 269 145 122 84 350 71 273 95 220 221 210 216 212 211 210 210 213 213 211 213 213 214 216 217 219 220 224 229 231 234 237 239 220 222 227 236
218 192 197 213 241 190 212 122 41 58 72 48 231 136 275 194 221 221 218 214 213 210 213 213 216 216 216 217 216 219 219 230 221 221 229 236 232 232 236 229 220 227 237 246
8 295 280 173 293 19 68 55 356 357 10 217 9 50 234 243 241 216 205 210 216 212 209 211 213 216 218 220 219 222 231 232 224 228 230 237 232 234 238 233 229 231 233 237
146 331 159 191 176 178 143 140 154 229 187 263 336 249 259 241 296 264 246 214 216 221 216 213 213 215 217 216 217 225 229 234 225 231 230 225 226 231 238 236 229 231 235 232
141 265 335 218 203 155 175 197 170 102 352 54 251 289 310 316 82 98 130 163 183 200 208 215 216 215 212 211 221 240 232 227 227 226 224 229 230 239 238 232 226 231 223 235
208 242 217 309 85 278 172 160 59 16 168 248 283 280 244 321 333 124 167 185 192 199 208 214 216 216 213 220 229 240 235 233 224 221 230 231 233 233 229 230 224 225 241 255
138 126 276 78 197 205 150 137 62 118 135 179 217 265 220 239 263 282 300 257 224 204 204 207 215 218 216 225 231 238 229 224 226 227 234 228 223 222 221 223 228 238 250 255
194 147 177 208 133 155 150 154 147 128 227 197 158 268 249 239 277 279 275 289 245 223 212 212 213 211 216 222 231 233 230 228 230 225 225 224 234 222 224 230 237 244 252 248
182 157 69 347 353 12 174 213 145 114 79 194 146 256 287 268 258 263 256 257 251 228 215 213 214 217 220 223 226 228 224 224 225 226 233 239 224 232 239 239 243 252 250 254
140 130 157 188 211 167 205 239 166 143 129 200 220 257 273 253 256 277 256 246 248 233 227 225 224 224 225 225 225 227 224 227 227 229 238 241 242 247 246 244 246 244 242 252
133 145 155 208 174 183 190 223 179 211 202 164 251 203 258 308 267 282 258 229 246 237 233 233 234 235 235 231 232 231 231 231 231 234 238 249 245 243 238 239 234 231 234 214
344 164 119 158 73 26 247 240 239 221 226 263 244 257 231 292 93 69 84 128 100 105 181 241 252 253 252 251 247 246 246 242 237 238 239 238 233 229 230 225 222 208 187 191
124 131 111 228 63 6 329 222 220 227 210 186 190 222 138 69 56 66 100 104 100 99 106 109 123 255 268 271 266 261 253 246 235 229 229 228 225 224 221 222 200 189 191 309
124 100 83 183 61 341 240 285 223 192 280 232 126 123 120 126 97 88 100 112 112 105 95 90 91 108 235 253 255 250 247 240 228 224 225 222 221 213 188 183 180 216 311 282
89 122 111 143 181 292 282 189 159 164 249 335 131 130 137 119 92 62 76 84 87 81 71 37 8 341 307 259 251 248 236 228 221 215 206 189 179 171 176 201 273 269 274 277
57 68 118 140 151 207 230 233 183 119 287 199 162 166 167 139 90 247 157 135 140 159 171 301 357 342 309 278 241 237 212 204 192 178 173 166 169 219 272 281 279 281 293 281
57 30 150 135 205 286 244 199 143 146 231 171 177 165 152 157 187 168 182 182 183 174 173 176 157 122 74 69 169 208 170 173 174 187 204 230 266 278 290 308 299 283 283 286
162 143 179 92 73 278 200 137 166 202 146 165 173 167 156 156 161 170 175 168 154 143 127 121 122 109 103 104 118 123 143 164 245 276 288 297 305 313 300 294 290 285 283 289
201 178 177 176 207 230 198 213 188 156 159 170 170 171 165 158 160 164 159 149 142 138 134 126 122 118 114 107 89 69 34 18 14 43 1 325 313 305 297 291 289 289 290 290
245 167 135 104 217 225 185 170 164 170 168 172 178 172 173 166 166 159 156 150 147 140 134 127 124 118 106 91 92 91 83 59 23 342 327 320 312 306 302 299 297 294 293 292
196 143 140 79 66 104 172 174 170 166 167 166 166 173 174 170 162 164 156 151 144 137 130 125 119 111 103 96 90 77 38 358 339 332 324 318 313 310 305 300 299 298 296 298
192 166 158 213 186 169 182 172 168 163 160 162 168 157 158 171 163 159 147 142 138 132 127 123 118 117 115 111 71 359 333 325 319 317 313 310 306 303 300 297 294 287 289 293